Ingonish Beach, Nova Scotia

1:19 AM AST on December 04, 2016 (GMT -0400)
Ingonish Beach

Weather History for CXIB - October, 2012

Change the Weather History Date:

Tuesday, October 23, 2012

  Actual Average Record
Temperature  
Mean Temperature 46 °F -  
Max Temperature 51 °F - - ()
Min Temperature 40 °F - - ()
Degree Days  
Heating Degree Days 20    
Moisture  
Dew Point 39 °F    
Average Humidity 82    
Maximum Humidity 93    
Minimum Humidity 61    
Precipitation  
Precipitation 0.03 in - - ()
Sea Level Pressure  
Sea Level Pressure 29.66 in    
Wind  
Wind Speed 4 mph ()    
Max Wind Speed 14 mph    
Max Gust Speed 28 mph    
T = Trace of Precipitation, MM = Missing Value Source: Averaged Metar Reports

Daily Weather History Graph

Daily Weather History Graph

Search for Another Location

Airport or City:

Trip Planner

Search our weather history database for the weather conditions in past years. The results will help you decide how hot, cold, wet, or windy it might be!

Date:

Astronomy

Oct. 23, 2012 Rise Set
Actual Time 7:31 AM ADT 5:59 PM ADT
Civil Twilight 7:00 AM ADT 6:30 PM ADT
Nautical Twilight 6:24 AM ADT 7:06 PM ADT
Astronomical Twilight 5:49 AM ADT 7:41 PM ADT
Moon 2:59 PM ADT (10/23) 12:56 AM ADT (10/23)
Length of Visible Light 11h 30m
Length of Day
10h 28m
Waxing Gibbous, 66% of the Moon is Illuminated
Oct 23
Waxing Gibbous
Oct 29
Full
Nov 6
Last Quarter
Nov 13
New
Nov 20
First Quarter

Hourly Weather History & Observations

Time (ADT) Temp. Windchill Dew Point Humidity Pressure Visibility Wind Dir Wind Speed Gust Speed Precip Events Conditions
12:00 AM 43.3 °F 41.7 °F 40.5 °F 90% 29.57 in - SSE 3.5 mph - N/A   Unknown
1:00 AM 43.2 °F - 41.0 °F 92% 29.58 in - WNW 2.3 mph - N/A   Unknown
2:00 AM 42.8 °F - 40.8 °F 93% 29.58 in - SW 2.3 mph - N/A   Unknown
3:00 AM 44 °F - 40 °F 79% 29.58 in - West 3.5 mph - -  
3:00 AM 44.1 °F 42.5 °F 39.6 °F 84% 29.58 in - West 3.5 mph - N/A   Unknown
5:00 AM 41.2 °F - 39.4 °F 93% 29.59 in - SW 2.3 mph - N/A   Unknown
6:00 AM 42.1 °F 40.2 °F 39.7 °F 91% 29.60 in - West 3.5 mph - N/A   Unknown
7:00 AM 43.7 °F 42.1 °F 39.6 °F 85% 29.61 in - WNW 3.5 mph - N/A   Unknown
9:00 AM 45 °F - 42 °F 87% 29.65 in - West 3.5 mph - -  
9:00 AM 45.3 °F 44.0 °F 42.4 °F 90% 29.65 in - West 3.5 mph - N/A   Unknown
10:00 AM 47.7 °F - 41.0 °F 78% 29.65 in - WNW 5.8 mph - N/A   Unknown
12:00 PM 48.9 °F - 41.5 °F 76% 29.67 in - WNW 4.6 mph - 0.03 in   Unknown
1:00 PM 46.8 °F - 40.5 °F 79% 29.65 in - West 8.1 mph - N/A   Unknown
2:00 PM 46.6 °F - 39.4 °F 76% 29.63 in - West 13.8 mph 27.6 mph N/A   Unknown
3:00 PM 48 °F - 39 °F 61% 29.62 in - WNW 12.7 mph - -  
4:00 PM 46.6 °F - 37.0 °F 69% 29.65 in - WNW 10.4 mph 23.0 mph N/A   Unknown
5:00 PM 44.4 °F 42.9 °F 36.9 °F 75% 29.69 in - West 3.5 mph - N/A   Unknown
6:00 PM 43.2 °F 41.5 °F 36.3 °F 77% 29.73 in - NNE 3.5 mph - N/A   Unknown
8:00 PM 41.7 °F 39.8 °F 36.1 °F 81% 29.77 in - WNW 3.5 mph - N/A   Unknown
9:00 PM 41 °F - 36 °F 77% 29.78 in - West 3.5 mph - -  
9:00 PM 40.6 °F 38.6 °F 36.3 °F 85% 29.78 in - West 3.5 mph - N/A   Unknown
10:00 PM 40.6 °F 37.5 °F 35.1 °F 80% 29.78 in - West 4.6 mph - N/A   Unknown
11:00 PM 40.5 °F 37.3 °F 34.7 °F 80% 29.79 in - West 4.6 mph - N/A   Unknown